{"data":{"norad_id":53168,"epoch":"2026-09-20T00:15:22.269024Z","epoch_age_seconds":114545,"freshness":"FRESH","line1":"1 53168U 22083AN  26263.01067441  .00004350  00000+0  14355-3 0  9992","line2":"2 53168  53.1606   5.9306 0001209  86.2073 273.9068 15.33545006230773","mean_motion":15.33545006,"eccentricity":0.0001209,"inclination_deg":53.1606,"raan_deg":5.9306,"arg_perigee_deg":86.2073,"mean_anomaly_deg":273.9068,"bstar":0.00014355,"rev_number":23077,"period_min":93.900080817061,"perigee_km":464.4182781907,"apogee_km":466.07300811381,"semimajor_km":6843.3826431523,"source":"CELESTRAK","updated_at":"2026-09-20T09:00:40.185227Z"}}